BAW74L EKCH-ENBR

Flight info

Callsign BAW74L
Flight time N/A
Altitude 36000
Route GOLGA DCT BADAB
Aircraft B744/H-SDE3FGHIM1M2RWXY/LB1

Departure

Time 2026-05-05 19:12
Airport Copenhagen Kastrup Airport (EKCH)

Arrival

Time N/A
Airport Bergen Airport, Flesland (ENBR)
Time Latitude Longitude Altitude Speed Heading
2026-05-05 18:44 55.62621 12.64399 30 ft 0 kts 68°
2026-05-05 18:57 55.62620 12.64396 30 ft 2 kts 68°
2026-05-05 18:58 55.62610 12.64352 29 ft 5 kts 67°
2026-05-05 18:58 55.62594 12.64285 28 ft 5 kts 66°
2026-05-05 18:58 55.62577 12.64238 28 ft 5 kts 46°
2026-05-05 18:58 55.62556 12.64196 28 ft 5 kts 62°
2026-05-05 18:59 55.62551 12.64161 27 ft 5 kts 94°
2026-05-05 18:59 55.62560 12.64108 28 ft 4 kts 121°
2026-05-05 18:59 55.62576 12.64061 28 ft 5 kts 123°
2026-05-05 18:59 55.62583 12.64043 26 ft 0 kts 123°
2026-05-05 19:01 55.62573 12.64070 30 ft 5 kts 123°
2026-05-05 19:01 55.62546 12.64145 30 ft 9 kts 123°
2026-05-05 19:02 55.62505 12.64256 30 ft 12 kts 123°
2026-05-05 19:02 55.62450 12.64394 30 ft 15 kts 127°
2026-05-05 19:02 55.62386 12.64551 30 ft 16 kts 123°
2026-05-05 19:02 55.62322 12.64723 30 ft 17 kts 130°
2026-05-05 19:03 55.62242 12.64786 30 ft 4 kts 193°
2026-05-05 19:03 55.62242 12.64785 30 ft 0 kts 194°
2026-05-05 19:04 55.62217 12.64769 30 ft 6 kts 205°
2026-05-05 19:05 55.62163 12.64716 31 ft 11 kts 212°
2026-05-05 19:05 55.62092 12.64636 31 ft 15 kts 213°
2026-05-05 19:05 55.61992 12.64540 30 ft 18 kts 192°
2026-05-05 19:05 55.61852 12.64535 30 ft 23 kts 173°
2026-05-05 19:06 55.61679 12.64531 30 ft 27 kts 195°
2026-05-05 19:06 55.61515 12.64382 30 ft 25 kts 213°
2026-05-05 19:06 55.61362 12.64202 30 ft 28 kts 213°
2026-05-05 19:06 55.61190 12.64002 30 ft 30 kts 212°
2026-05-05 19:07 55.61014 12.63798 30 ft 31 kts 213°
2026-05-05 19:07 55.60849 12.63608 30 ft 29 kts 213°
2026-05-05 19:07 55.60678 12.63412 30 ft 27 kts 218°
2026-05-05 19:07 55.60549 12.63209 30 ft 24 kts 221°
2026-05-05 19:08 55.60444 12.63131 30 ft 11 kts 162°
2026-05-05 19:08 55.60420 12.63150 30 ft 0 kts 141°
2026-05-05 19:10 55.60406 12.63170 30 ft 5 kts 140°
2026-05-05 19:10 55.60371 12.63231 30 ft 9 kts 131°
2026-05-05 19:10 55.60348 12.63340 31 ft 10 kts 66°
2026-05-05 19:11 55.60364 12.63382 32 ft 0 kts 43°
2026-05-05 19:11 55.60478 12.63559 31 ft 58 kts 39°
2026-05-05 19:12 55.60962 12.64303 31 ft 119 kts 40°
2026-05-05 19:12 55.61705 12.65412 44 ft 155 kts 40°
2026-05-05 19:12 55.62584 12.66775 419 ft 176 kts 37°
2026-05-05 19:12 55.63478 12.68097 1339 ft 162 kts 37°
2026-05-05 19:13 55.64337 12.69495 1814 ft 174 kts 39°
2026-05-05 19:13 55.65414 12.70616 2291 ft 187 kts 10°
2026-05-05 19:13 55.66752 12.70403 2894 ft 202 kts 346°
2026-05-05 19:13 55.68191 12.69991 3550 ft 217 kts 355°
2026-05-05 19:14 55.69734 12.69995 4362 ft 225 kts
2026-05-05 19:14 55.71311 12.70218 5303 ft 229 kts
2026-05-05 19:14 55.72910 12.70515 6264 ft 233 kts
2026-05-05 19:14 55.74528 12.70855 7087 ft 232 kts
2026-05-05 19:15 55.76237 12.71233 7461 ft 249 kts
2026-05-05 19:15 55.78027 12.71636 8102 ft 253 kts
2026-05-05 19:15 55.79859 12.72063 8695 ft 264 kts
2026-05-05 19:15 55.81708 12.72506 8949 ft 268 kts
2026-05-05 19:16 55.83538 12.72949 8966 ft 267 kts
2026-05-05 19:16 55.85367 12.72871 9128 ft 266 kts 339°
2026-05-05 19:16 55.86813 12.70911 9973 ft 263 kts 310°
2026-05-05 19:16 55.87957 12.68288 10669 ft 269 kts 307°
2026-05-05 19:17 55.89146 12.65464 11227 ft 293 kts 307°
2026-05-05 19:17 55.90422 12.62500 11803 ft 308 kts 308°
2026-05-05 19:17 55.91801 12.59406 12335 ft 327 kts 309°
2026-05-05 19:17 55.93272 12.56191 12918 ft 340 kts 309°
2026-05-05 19:18 55.94819 12.52907 13695 ft 350 kts 309°
2026-05-05 19:18 55.96403 12.49569 14475 ft 346 kts 309°
2026-05-05 19:18 55.97981 12.46219 15361 ft 358 kts 308°
2026-05-05 19:18 55.99595 12.42771 16245 ft 364 kts 308°
2026-05-05 19:19 56.01223 12.39279 17101 ft 368 kts 308°
2026-05-05 19:19 56.02875 12.35737 17933 ft 373 kts 308°
2026-05-05 19:19 56.04547 12.32145 18606 ft 378 kts 307°
2026-05-05 19:19 56.06240 12.28500 18892 ft 381 kts 307°
2026-05-05 19:20 56.07930 12.24851 18959 ft 380 kts 307°
2026-05-05 19:20 56.09660 12.21192 18960 ft 390 kts 307°
2026-05-05 19:20 56.11454 12.17435 19341 ft 402 kts 306°
2026-05-05 19:20 56.13252 12.13559 20159 ft 406 kts 304°
2026-05-05 19:21 56.15018 12.09685 20894 ft 407 kts 304°
2026-05-05 19:21 56.16839 12.05666 21633 ft 411 kts 304°
2026-05-05 19:21 56.18621 12.01734 22314 ft 408 kts 304°
2026-05-05 19:21 56.20472 11.97662 23017 ft 412 kts 304°
2026-05-05 19:22 56.22314 11.93624 23641 ft 415 kts 304°
2026-05-05 19:22 56.24149 11.89604 24217 ft 421 kts 304°
2026-05-05 19:22 56.26016 11.85512 24836 ft 424 kts 304°
2026-05-05 19:22 56.27895 11.81391 25463 ft 426 kts 304°
2026-05-05 19:23 56.29788 11.77233 26043 ft 431 kts 304°
2026-05-05 19:23 56.31686 11.73058 26613 ft 432 kts 304°
2026-05-05 19:23 56.33637 11.68910 27163 ft 437 kts 309°
2026-05-05 19:23 56.35806 11.65023 27699 ft 439 kts 310°
2026-05-05 19:24 56.37965 11.61080 28235 ft 442 kts 309°
2026-05-05 19:24 56.40116 11.57085 28737 ft 442 kts 309°
2026-05-05 19:24 56.42280 11.53042 29225 ft 447 kts 309°
2026-05-05 19:24 56.44440 11.49000 29704 ft 449 kts 309°
2026-05-05 19:25 56.46617 11.44931 30149 ft 452 kts 309°
2026-05-05 19:25 56.48808 11.40841 30572 ft 455 kts 309°
2026-05-05 19:25 56.51008 11.36736 30992 ft 455 kts 309°
2026-05-05 19:25 56.52942 11.32416 31264 ft 429 kts 296°
2026-05-05 19:26 56.54099 11.27767 31239 ft 386 kts 285°
2026-05-05 19:26 56.54732 11.23189 31201 ft 366 kts 277°
2026-05-05 19:26 56.54746 11.14136 30894 ft 363 kts 260°
2026-05-05 19:27 56.54086 11.09752 30500 ft 357 kts 250°
2026-05-05 19:27 56.52858 11.05897 30017 ft 357 kts 232°
2026-05-05 19:27 56.50839 11.03226 29478 ft 365 kts 210°
2026-05-05 19:27 56.48323 11.02226 28979 ft 380 kts 188°
2026-05-05 19:28 56.45716 11.03088 28495 ft 395 kts 166°
2026-05-05 19:28 56.43334 11.05818 28010 ft 409 kts 143°
2026-05-05 19:28 56.41642 11.09943 27548 ft 424 kts 122°
2026-05-05 19:28 56.40571 11.14961 27058 ft 429 kts 108°
2026-05-05 19:29 56.39821 11.20155 26624 ft 428 kts 104°
2026-05-05 19:29 56.39087 11.25331 26188 ft 423 kts 110°
2026-05-05 19:29 56.37837 11.30079 25753 ft 416 kts 126°
2026-05-05 19:29 56.36114 11.34201 25322 ft 409 kts 135°
2026-05-05 19:30 56.34195 11.37935 24884 ft 404 kts 139°
2026-05-05 19:30 56.32166 11.41387 24448 ft 398 kts 143°
2026-05-05 19:30 56.30033 11.44529 24017 ft 394 kts 147°
2026-05-05 19:30 56.27832 11.47419 23601 ft 390 kts 150°
2026-05-05 19:31 56.25595 11.50135 23137 ft 386 kts 152°
2026-05-05 19:31 56.23349 11.52752 22702 ft 384 kts 153°
2026-05-05 19:31 56.21119 11.55359 22288 ft 383 kts 149°
2026-05-05 19:31 56.18985 11.58245 21848 ft 384 kts 146°
2026-05-05 19:32 56.16898 11.61239 21453 ft 382 kts 144°
2026-05-05 19:32 56.14845 11.64253 21041 ft 380 kts 144°
2026-05-05 19:32 56.12810 11.67260 20641 ft 377 kts 144°
2026-05-05 19:32 56.10810 11.70218 20252 ft 375 kts 144°
2026-05-05 19:33 56.08777 11.73218 19846 ft 374 kts 143°